Regional Weather Roundup
Issued by NWS

Home | Current Version | Previous Version | Text Only | Print | Product List | Glossary Off
Versions: 1 2 3 4 5 6 7 8 9 10 11 12 13 14 15 16 17 18 19 20 21 22 23 24 25 26 27 28 29 30 31 32 33 34 35 36 37 38 39 40 41 42 43 44 45 46 47 48 49 50

139
ASUS45 KTFX 291110
RWRMT
MONTANA REGIONAL WEATHER ROUNDUP
NATIONAL WEATHER SERVICE GREAT FALLS MT
500 AM MDT FRI JUL 29 2016

NOTE: "FAIR" INDICATES FEW OR NO CLOUDS BELOW 12000 FEET WITH NO
SIGNIFICANT WEATHER AND/OR OBSTRUCTIONS TO VISIBILITY.

MTZ001>007-043-291200-
WEST OF THE DIVIDE

CITY           SKY/WX    TMP DP  RH WIND       PRES   REMARKS
KALISPELL      CLEAR     62  54  74 N10       30.05R
MISSOULA       PTCLDY    63  49  60 CALM      30.08S
BUTTE          CLEAR     49  37  63 SE3       30.20F
MULLAN PASS    CLEAR     65  40  39 N3        30.23S
ANACONDA         N/A     55  41  58 CALM      30.17R
DEER LODGE       N/A     50  45  81 CALM      30.18F
EUREKA           N/A     55  50  82 CALM      30.07R
HAMILTON         N/A     59  48  67 CALM      30.09F
LIBBY            N/A     55  46  71 CALM      30.06R
PLAINS           N/A     56  47  71 CALM      30.05S
RONAN            N/A     55  49  80 N2        30.09S
$$

MTZ008-052>055-291200-
SOUTHWEST MONTANA

CITY           SKY/WX    TMP DP  RH WIND       PRES   REMARKS
BOZEMAN        CLEAR     58  50  75 SW6       30.13F
DILLON         CLEAR     54  42  64 S5        30.15F
W YELLOWSTONE  CLOUDY    41  36  81 CALM      30.26F
ENNIS          CLEAR     52  41  66 N6        30.22S
THREE FORKS      N/A     53  53 100 CALM      30.10F
TWIN BRIDGES     N/A     54  39  56 CALM      30.12F
$$

MTZ009-010-012-014-046-048-049-054-291200-
EAST SLOPES AND CENTRAL MONTANA

CITY           SKY/WX    TMP DP  RH WIND       PRES   REMARKS
CUT BANK       CLEAR     57  54  89 CALM      30.12F
GREAT FALLS    CLEAR     61  55  81 N8        30.14R
MALMSTROM AFB  CLEAR     61  56  85 NE9       30.12R
HELENA         CLEAR     61  45  55 W5        30.13R
CHOTEAU          N/A     57  54  88 CALM      30.16F
$$

MTZ011-013-016-021-045-047-050-051-291200-
NORTH CENTRAL MONTANA

CITY           SKY/WX    TMP DP  RH WIND       PRES   REMARKS
HAVRE          CLOUDY    62  59  90 MISG      30.06S
N BAR RANCH      N/A     54  46  76 NW6       30.15F
CHINOOK          N/A     63  59  88 CALM      30.05F
$$

MTZ017>020-022>027-061-062-291200-
NORTHEAST MONTANA

CITY           SKY/WX    TMP DP  RH WIND       PRES   REMARKS
GLASGOW        PTCLDY    58  54  86 E7        30.06S
JORDAN           N/A     56  54  93 CALM      30.07F
SIDNEY         CLEAR     52  50  93 N3        30.09F
WOLF POINT     CLEAR     57  54  89 E5        30.08F
PLENTYWOOD       N/A     55  54  94 E5        30.10S
POPLAR           N/A     54  54 100 N3        30.09S
$$

MTZ028>42-056>058-291200-
SOUTHCENTRAL AND SOUTHEAST MONTANA

CITY           SKY/WX    TMP DP  RH WIND       PRES   REMARKS
BAKER          CLOUDY    60  60 100 SE8       30.12F
BILLINGS       PTCLDY    62  49  62 N3        30.09S
LIVINGSTON     CLEAR     53  48  83 CALM      30.15F
MILES CITY     CLEAR     63  58  83 SE5       30.07S
EKALAKA          N/A     59  56  89 SE8       30.09F
FORSYTH          N/A     57  57 100 CALM      30.06F
LAUREL           N/A     59  50  72 CALM      30.08F
ROUNDUP          N/A     56  48  74 CALM      30.01S
$$

REGIONAL REPORTS...DAKOTAS

CITY           SKY/WX    TMP DP  RH WIND       PRES   REMARKS
WILLISTON      CLEAR     51  49  92 NE3       30.10S
MINOT          MOCLDY    56  52  86 CALM      30.10S
DICKINSON      FOG       54  54 100 SE3       30.10F VSB 3/4
BEACH          FOG       59  59 100 S8        30.14S VSB 1/2
CROSBY           N/A     54  54 100 SW8       30.12S
WATFORD CITY     N/A    N/A N/A N/A MISG        N/A
BISMARCK       CLOUDY    63  61  93 CALM      30.09F
GRAND FORKS    PTCLDY    51  49  92 W6        30.08F
FARGO          MOCLDY    59  55  87 CALM      30.08S
BUFFALO SD       N/A     60  59  96 SE6       30.06F
RAPID CITY     FOG       55  55 100 CALM      30.13F VSB 1/4
$$

REGIONAL REPORTS...WYOMING/IDAHO/WASHINGTON

CITY           SKY/WX    TMP DP  RH WIND       PRES   REMARKS
GILLETTE       CLEAR     56  54  93 S6        30.14S
SHERIDAN       CLEAR     51  47  86 N3        30.11F
BUFFALO WY     CLEAR     57  45  64 SW7       30.16F
CODY           CLEAR     57  46  67 S5        30.17S
YELLOWSTONE LA   N/A     42  39  89 NW3       30.34F
IDAHO FALLS    CLEAR     52  45  77 CALM      30.08S
SALMON         CLEAR     55  45  67 CALM      30.08S
BOISE          CLEAR     69  46  43 SW3       29.97R
SPOKANE        CLEAR     70  48  45 E5        29.99S
$$

REGIONAL REPORTS...ALBERTA

CITY           SKY/WX    TMP DP  RH WIND       PRES   REMARKS
EDMONTON       PTCLDY    55  54  94 SW7       30.00F
CALGARY        CLEAR     57  48  72 N3        30.10S
LETHBRIDGE     CLEAR     55  55 100 SE5       30.10S
MEDICINE HAT   MOCLDY    59  59 100 VRB2      30.06S
WATERTON GATE    N/A     55  52  88 S12         N/A
MILK RIVER       N/A     55  55 100 W3          N/A
ONEFOUR          N/A     59  57  94 W2          N/A
$$

REGIONAL REPORTS...SASKATCHEWAN

CITY           SKY/WX    TMP DP  RH WIND       PRES   REMARKS
SWIFT CURRENT  CLOUDY    61  57  88 W9        30.06S
REGINA         PTCLDY    52  50  93 SE8       30.07S
SASKATOON      CLOUDY    63  61  94 SW8       30.02R
CYPRESS HILLS    N/A     55  52  88 NW1         N/A
ROCKGLEN         N/A     52  48  87 S7          N/A
ASSINIBOIA       N/A     55  55 100 S6          N/A
$$




USA.gov is the U.S. government's official web portal to all federal, state and local government web resources and services.